Voltar ao catálogo

NOAA 16 DEB

AtivoSSO
NORAD 41151·DEBRIS·🇺🇸 United States

Lançado Sep 21, 2000 de Vandenberg Space Force Base

Loading…

Próximas Passagens (próximas 24 horas)

TLE

AtualizadoSource: Space-Track

Época: Sep 13, 2026, 06:31 UTC

1 41151U 00055CJ  26256.27165569  .00002629  00000-0  13209-2 0  9990
2 41151  98.7961 258.5150 0058874  91.4645 269.3275 14.16448283551849

Acompanhe NOAA 16 DEB em tempo real com AllMySat

Download on the App Store